Home   Weather   Mazatlan   Past weeks

Flag for Mexico Past Weather in Mazatlan, Sinaloa, Mexico — Yesterday and Last 2 Weeks

Now
72 °F

Clear.


Feels Like: 69 °F
Forecast: 71 / 82 °F
Wind: 5 mph from Northeast

Location: Mazatlan / G. Buelna

Current Time: Apr 23, 2017 at 3:59:19 am

Latest Report: Apr 23, 2017 at 2:43 am


Visibility: 8 mi

Pressure: 29.80 "Hg

Humidity: 88%

Dew Point: 68 °F

Location of MazatlanLocation

Past Weather in Mazatlan — Graph

°F

Mazatlan Temperature Yesterday

Maximum temperature yesterday: 84 °F (at 12:44 pm)
Minimum temperature yesterday: 68 °F (at 5:42 am)
Average temperature yesterday: 76 °F

High & Low Weather Summary for the Past Weeks

 TemperatureHumidityPressure
High84 °F (Apr 20, 11:41 am)100% (Apr 19, 2:40 am)29.95 "Hg (Apr 19, 2:40 am)
Low59 °F (Apr 18, 12:40 am)35% (Apr 20, 2:40 pm)29.75 "Hg (Apr 20, 5:43 pm)
Average75 °F76%29.86 "Hg
* Reported Apr 18 12:40 am — Apr 23 2:43 am, Mazatlan, Weather by CustomWeather, © 2017

Note: Actual official high and low records may vary slightly from our data, if they occured in-between our weather recording intervals... More about our weather records

Advertising

Mazatlan Weather History for the Previous 24 Hours

Scroll right to see more
 ConditionsComfort  
Time TempWeatherWind HumidityBarometerVisibility
2:43 am
Sun, Apr 23
72 °FClear.5 mph88%29.80 "Hg8 mi
1:41 am72 °FPassing clouds.No wind88%29.82 "Hg8 mi
12:41 am72 °FClear.3 mph88%29.84 "Hg10 mi
11:44 pm
Sat, Apr 22
73 °FClear.No wind89%29.83 "Hg10 mi
10:44 pm73 °FClear.No wind83%29.86 "Hg10 mi
9:41 pm75 °FPassing clouds.No wind83%29.85 "Hg10 mi
8:42 pm75 °FClear.No wind83%29.83 "Hg10 mi
7:40 pm77 °FPassing clouds.5 mph79%29.81 "Hg12 mi
6:41 pm79 °FSunny.5 mph74%29.78 "Hg14 mi
5:41 pm81 °FPassing clouds.10 mph66%29.77 "Hg15 mi
4:42 pm82 °FPassing clouds.8 mph66%29.78 "Hg15 mi
3:42 pm82 °FPassing clouds.7 mph62%29.78 "Hg15 mi
2:42 pm82 °FPassing clouds.7 mph62%29.80 "Hg15 mi
1:41 pm82 °FPassing clouds.9 mph66%29.81 "Hg15 mi
12:44 pm84 °FPassing clouds.8 mph58%29.82 "Hg15 mi
11:41 am82 °FScattered clouds.6 mph66%29.83 "Hg15 mi
10:42 am82 °FPassing clouds.6 mph62%29.85 "Hg14 mi
9:40 am81 °FPassing clouds.6 mph66%29.85 "Hg12 mi
8:43 am79 °FPassing clouds.No wind74%29.81 "Hg10 mi
7:40 am72 °FSunny.No wind88%29.84 "Hg10 mi
6:40 am68 °FPartly sunny.No wind100%29.82 "Hg8 mi
5:42 am68 °FClear.No wind94%29.80 "Hg10 mi
4:41 am70 °FClear.No wind88%29.81 "Hg10 mi
3:41 am72 °FClear.No wind88%29.81 "Hg10 mi
Weather by CustomWeather, © 2017

See weather overviewHow to use our weather pages